Year,Month,Day,Hour,Minute,Value (Times are PST for temperature in C)
2010,09,29,00,00,12.00
2010,09,29,00,01,12.00
2010,09,29,00,02,12.00
2010,09,29,00,03,12.00
2010,09,29,00,04,12.00
2010,09,29,00,05,12.00
2010,09,29,00,06,11.90
2010,09,29,00,07,12.00
2010,09,29,00,08,12.00
2010,09,29,00,09,12.00
2010,09,29,00,10,12.00
2010,09,29,00,11,12.00
2010,09,29,00,12,11.90
2010,09,29,00,13,11.90
2010,09,29,00,14,11.90
2010,09,29,00,15,11.80
2010,09,29,00,16,11.80
2010,09,29,00,17,11.80
2010,09,29,00,18,11.80
2010,09,29,00,19,11.80
2010,09,29,00,20,11.80
2010,09,29,00,21,11.80
2010,09,29,00,22,11.80
2010,09,29,00,23,11.80
2010,09,29,00,24,11.80
2010,09,29,00,25,11.80
2010,09,29,00,26,11.80
2010,09,29,00,27,11.80
2010,09,29,00,28,11.80
2010,09,29,00,29,11.80
2010,09,29,00,30,11.80
2010,09,29,00,31,11.80
2010,09,29,00,32,11.80
2010,09,29,00,33,11.80
2010,09,29,00,34,11.80
2010,09,29,00,35,11.70
2010,09,29,00,36,11.70
2010,09,29,00,37,11.70
2010,09,29,00,38,11.70
2010,09,29,00,39,11.70
2010,09,29,00,40,11.70
2010,09,29,00,41,11.70
2010,09,29,00,42,11.70
2010,09,29,00,43,11.60
2010,09,29,00,44,11.60
2010,09,29,00,45,11.60
2010,09,29,00,46,11.60
2010,09,29,00,47,11.60
2010,09,29,00,48,11.60
2010,09,29,00,49,11.60
2010,09,29,00,50,11.60
2010,09,29,00,51,11.60
2010,09,29,00,52,11.40
2010,09,29,00,53,11.40
2010,09,29,00,54,11.40
2010,09,29,00,55,11.40
2010,09,29,00,56,11.40
2010,09,29,00,57,11.40
2010,09,29,00,58,11.30
2010,09,29,00,59,11.30
2010,09,29,01,00,11.30
2010,09,29,01,01,11.30
2010,09,29,01,02,11.30
2010,09,29,01,03,11.40
2010,09,29,01,04,11.40
2010,09,29,01,05,11.40
2010,09,29,01,06,11.40
2010,09,29,01,07,11.50
2010,09,29,01,08,11.60
2010,09,29,01,09,11.60
2010,09,29,01,10,11.60
2010,09,29,01,11,11.60
2010,09,29,01,12,11.50
2010,09,29,01,13,11.40
2010,09,29,01,14,11.40
2010,09,29,01,15,11.40
2010,09,29,01,16,11.40
2010,09,29,01,17,11.40
2010,09,29,01,18,11.40
2010,09,29,01,19,11.40
2010,09,29,01,20,11.30
2010,09,29,01,21,11.30
2010,09,29,01,22,11.30
2010,09,29,01,23,11.30
2010,09,29,01,24,11.30
2010,09,29,01,25,11.30
2010,09,29,01,26,11.30
2010,09,29,01,27,11.30
2010,09,29,01,28,11.30
2010,09,29,01,29,11.20
2010,09,29,01,30,11.20
2010,09,29,01,31,11.20
2010,09,29,01,32,11.20
2010,09,29,01,33,11.20
2010,09,29,01,34,11.20
2010,09,29,01,35,11.20
2010,09,29,01,36,11.10
2010,09,29,01,37,11.10
2010,09,29,01,38,11.10
2010,09,29,01,39,11.10
2010,09,29,01,40,11.10
2010,09,29,01,41,11.10
2010,09,29,01,42,11.10
2010,09,29,01,43,11.10
2010,09,29,01,44,11.10
2010,09,29,01,45,11.10
2010,09,29,01,46,11.10
2010,09,29,01,47,11.10
2010,09,29,01,48,11.10
2010,09,29,01,49,11.00
2010,09,29,01,50,10.90
2010,09,29,01,51,10.90
2010,09,29,01,52,10.90
2010,09,29,01,53,10.90
2010,09,29,01,54,10.90
2010,09,29,01,55,10.90
2010,09,29,01,56,11.00
2010,09,29,01,57,11.10
2010,09,29,01,58,11.10
2010,09,29,01,59,11.10
2010,09,29,02,00,11.10
2010,09,29,02,01,11.10
2010,09,29,02,02,11.10
2010,09,29,02,03,11.10
2010,09,29,02,04,11.10
2010,09,29,02,05,11.10
2010,09,29,02,06,11.10
2010,09,29,02,07,11.10
2010,09,29,02,08,11.10
2010,09,29,02,09,11.10
2010,09,29,02,10,11.10
2010,09,29,02,11,11.10
2010,09,29,02,12,11.10
2010,09,29,02,13,11.10
2010,09,29,02,14,11.10
2010,09,29,02,15,11.10
2010,09,29,02,16,11.00
2010,09,29,02,17,10.90
2010,09,29,02,18,10.90
2010,09,29,02,19,10.90
2010,09,29,02,20,10.90
2010,09,29,02,21,10.90
2010,09,29,02,22,10.90
2010,09,29,02,23,10.80
2010,09,29,02,24,10.80
2010,09,29,02,25,10.80
2010,09,29,02,26,10.80
2010,09,29,02,27,10.80
2010,09,29,02,28,10.90
2010,09,29,02,29,10.90
2010,09,29,02,30,10.90
2010,09,29,02,31,10.80
2010,09,29,02,32,10.80
2010,09,29,02,33,10.80
2010,09,29,02,34,10.80
2010,09,29,02,35,10.80
2010,09,29,02,36,10.90
2010,09,29,02,37,10.90
2010,09,29,02,38,10.90
2010,09,29,02,39,10.90
2010,09,29,02,40,10.90
2010,09,29,02,41,11.00
2010,09,29,02,42,11.10
2010,09,29,02,43,11.10
2010,09,29,02,44,11.10
2010,09,29,02,45,11.10
2010,09,29,02,46,11.10
2010,09,29,02,47,11.00
2010,09,29,02,48,10.90
2010,09,29,02,49,10.90
2010,09,29,02,50,10.90
2010,09,29,02,51,10.90
2010,09,29,02,52,10.90
2010,09,29,02,53,10.90
2010,09,29,02,54,10.90
2010,09,29,02,55,10.80
2010,09,29,02,56,10.90
2010,09,29,02,57,10.80
2010,09,29,02,58,10.80
2010,09,29,02,59,10.80
2010,09,29,03,00,10.80
2010,09,29,03,01,10.80
2010,09,29,03,02,10.70
2010,09,29,03,03,10.70
2010,09,29,03,04,10.70
2010,09,29,03,05,10.70
2010,09,29,03,06,10.70
2010,09,29,03,07,10.60
2010,09,29,03,08,10.60
2010,09,29,03,09,10.60
2010,09,29,03,10,10.60
2010,09,29,03,11,10.70
2010,09,29,03,12,10.70
2010,09,29,03,13,10.70
2010,09,29,03,14,10.70
2010,09,29,03,15,10.60
2010,09,29,03,16,10.60
2010,09,29,03,17,10.60
2010,09,29,03,18,10.70
2010,09,29,03,19,10.70
2010,09,29,03,20,10.80
2010,09,29,03,21,10.80
2010,09,29,03,22,10.90
2010,09,29,03,23,10.90
2010,09,29,03,24,10.80
2010,09,29,03,25,10.80
2010,09,29,03,26,10.80
2010,09,29,03,27,10.80
2010,09,29,03,28,10.80
2010,09,29,03,29,10.80
2010,09,29,03,30,10.80
2010,09,29,03,31,10.80
2010,09,29,03,32,10.80
2010,09,29,03,33,10.80
2010,09,29,03,34,10.70
2010,09,29,03,35,10.70
2010,09,29,03,36,10.70
2010,09,29,03,37,10.60
2010,09,29,03,38,10.60
2010,09,29,03,39,10.60
2010,09,29,03,40,10.60
2010,09,29,03,41,10.60
2010,09,29,03,42,10.60
2010,09,29,03,43,10.60
2010,09,29,03,44,10.60
2010,09,29,03,45,10.50
2010,09,29,03,46,10.40
2010,09,29,03,47,10.40
2010,09,29,03,48,10.40
2010,09,29,03,49,10.40
2010,09,29,03,50,10.30
2010,09,29,03,51,10.30
2010,09,29,03,52,10.20
2010,09,29,03,53,10.20
2010,09,29,03,54,10.20
2010,09,29,03,55,10.20
2010,09,29,03,56,10.10
2010,09,29,03,57,10.10
2010,09,29,03,58,10.10
2010,09,29,03,59,10.10
2010,09,29,04,00,10.00
2010,09,29,04,01,9.90
2010,09,29,04,02,9.90
2010,09,29,04,03,9.90
2010,09,29,04,04,9.90
2010,09,29,04,05,9.90
2010,09,29,04,06,9.90
2010,09,29,04,07,9.90
2010,09,29,04,08,9.90
2010,09,29,04,09,9.90
2010,09,29,04,10,9.90
2010,09,29,04,11,9.90
2010,09,29,04,12,9.90
2010,09,29,04,13,9.90
2010,09,29,04,14,9.90
2010,09,29,04,15,9.90
2010,09,29,04,16,9.90
2010,09,29,04,17,9.80
2010,09,29,04,18,9.80
2010,09,29,04,19,9.80
2010,09,29,04,20,9.80
2010,09,29,04,21,9.70
2010,09,29,04,22,9.70
2010,09,29,04,23,9.70
2010,09,29,04,24,9.70
2010,09,29,04,25,9.70
2010,09,29,04,26,9.70
2010,09,29,04,27,9.70
2010,09,29,04,28,9.70
2010,09,29,04,29,9.60
2010,09,29,04,30,9.60
2010,09,29,04,31,9.60
2010,09,29,04,32,9.50
2010,09,29,04,33,9.50
2010,09,29,04,34,9.50
2010,09,29,04,35,9.50
2010,09,29,04,36,9.40
2010,09,29,04,37,9.40
2010,09,29,04,38,9.40
2010,09,29,04,39,9.40
2010,09,29,04,40,9.40
2010,09,29,04,41,9.30
2010,09,29,04,42,9.30
2010,09,29,04,43,9.20
2010,09,29,04,44,9.20
2010,09,29,04,45,9.20
2010,09,29,04,46,9.20
2010,09,29,04,47,9.20
2010,09,29,04,48,9.20
2010,09,29,04,49,9.20
2010,09,29,04,50,9.20
2010,09,29,04,51,9.20
2010,09,29,04,52,9.20
2010,09,29,04,53,9.20
2010,09,29,04,54,9.20
2010,09,29,04,55,9.20
2010,09,29,04,56,9.30
2010,09,29,04,57,9.30
2010,09,29,04,58,9.30
2010,09,29,04,59,9.40
2010,09,29,05,00,9.30
2010,09,29,05,01,9.30
2010,09,29,05,02,9.30
2010,09,29,05,03,9.30
2010,09,29,05,04,9.20
2010,09,29,05,05,9.20
2010,09,29,05,06,9.20
2010,09,29,05,07,9.20
2010,09,29,05,08,9.20
2010,09,29,05,09,9.20
2010,09,29,05,10,9.20
2010,09,29,05,11,9.10
2010,09,29,05,12,9.10
2010,09,29,05,13,9.10
2010,09,29,05,14,9.10
2010,09,29,05,15,9.00
2010,09,29,05,16,9.00
2010,09,29,05,17,9.00
2010,09,29,05,18,8.90
2010,09,29,05,19,8.90
2010,09,29,05,20,8.90
2010,09,29,05,21,8.90
2010,09,29,05,22,8.90
2010,09,29,05,23,8.90
2010,09,29,05,24,8.90
2010,09,29,05,25,8.90
2010,09,29,05,26,8.80
2010,09,29,05,27,8.80
2010,09,29,05,28,8.80
2010,09,29,05,29,8.80
2010,09,29,05,30,8.80
2010,09,29,05,31,8.70
2010,09,29,05,32,8.70
2010,09,29,05,33,8.70
2010,09,29,05,34,8.70
2010,09,29,05,35,8.70
2010,09,29,05,36,8.70
2010,09,29,05,37,8.70
2010,09,29,05,38,8.70
2010,09,29,05,39,8.70
2010,09,29,05,40,8.70
2010,09,29,05,41,8.70
2010,09,29,05,42,8.70
2010,09,29,05,43,8.70
2010,09,29,05,44,8.70
2010,09,29,05,45,8.70
2010,09,29,05,46,8.70
2010,09,29,05,47,8.70
2010,09,29,05,48,8.70
2010,09,29,05,49,8.70
2010,09,29,05,50,8.70
2010,09,29,05,51,8.70
2010,09,29,05,52,8.70
2010,09,29,05,53,8.70
2010,09,29,05,54,8.70
2010,09,29,05,55,8.70
2010,09,29,05,56,8.70
2010,09,29,05,57,8.70
2010,09,29,05,58,8.70
2010,09,29,05,59,8.70
2010,09,29,06,00,8.70
2010,09,29,06,01,8.70
2010,09,29,06,02,8.70
2010,09,29,06,03,8.70
2010,09,29,06,04,8.70
2010,09,29,06,05,8.70
2010,09,29,06,06,8.70
2010,09,29,06,07,8.70
2010,09,29,06,08,8.70
2010,09,29,06,09,8.70
2010,09,29,06,10,8.70
2010,09,29,06,11,8.70
2010,09,29,06,12,8.80
2010,09,29,06,13,8.90
2010,09,29,06,14,8.90
2010,09,29,06,15,8.90
2010,09,29,06,16,8.90
2010,09,29,06,17,8.90
2010,09,29,06,18,8.90
2010,09,29,06,19,8.90
2010,09,29,06,20,8.80
2010,09,29,06,21,8.80
2010,09,29,06,22,8.80
2010,09,29,06,23,8.70
2010,09,29,06,24,8.70
2010,09,29,06,25,8.80
2010,09,29,06,26,8.80
2010,09,29,06,27,8.80
2010,09,29,06,28,8.80
2010,09,29,06,29,8.70
2010,09,29,06,30,8.70
2010,09,29,06,31,8.70
2010,09,29,06,32,8.70
2010,09,29,06,33,8.70
2010,09,29,06,34,8.70
2010,09,29,06,35,8.70
2010,09,29,06,36,8.70
2010,09,29,06,37,8.70
2010,09,29,06,38,8.70
2010,09,29,06,39,8.70
2010,09,29,06,40,8.70
2010,09,29,06,41,8.60
2010,09,29,06,42,8.60
2010,09,29,06,43,8.60
2010,09,29,06,44,8.60
2010,09,29,06,45,8.60
2010,09,29,06,46,8.70
2010,09,29,06,47,8.70
2010,09,29,06,48,8.70
2010,09,29,06,49,8.70
2010,09,29,06,50,8.70
2010,09,29,06,51,8.70
2010,09,29,06,52,8.70
2010,09,29,06,53,8.70
2010,09,29,06,54,8.70
2010,09,29,06,55,8.70
2010,09,29,06,56,8.70
2010,09,29,06,57,8.70
2010,09,29,06,58,8.70
2010,09,29,06,59,8.70
2010,09,29,07,00,8.70
2010,09,29,07,01,8.70
2010,09,29,07,02,8.60
2010,09,29,07,03,8.60
2010,09,29,07,04,8.60
2010,09,29,07,05,8.60
2010,09,29,07,06,8.60
2010,09,29,07,07,8.70
2010,09,29,07,08,8.70
2010,09,29,07,09,8.60
2010,09,29,07,10,8.60
2010,09,29,07,11,8.60
2010,09,29,07,12,8.60
2010,09,29,07,13,8.60
2010,09,29,07,14,8.50
2010,09,29,07,15,8.50
2010,09,29,07,16,8.50
2010,09,29,07,17,8.50
2010,09,29,07,18,8.50
2010,09,29,07,19,8.50
2010,09,29,07,20,8.50
2010,09,29,07,21,8.50
2010,09,29,07,22,8.50
2010,09,29,07,23,8.50
2010,09,29,07,24,8.50
2010,09,29,07,25,8.40
2010,09,29,07,26,8.40
2010,09,29,07,27,8.40
2010,09,29,07,28,8.30
2010,09,29,07,29,8.30
2010,09,29,07,30,8.30
2010,09,29,07,31,8.30
2010,09,29,07,32,8.30
2010,09,29,07,33,8.30
2010,09,29,07,34,8.30
2010,09,29,07,35,8.30
2010,09,29,07,36,8.30
2010,09,29,07,37,8.20
2010,09,29,07,38,8.20
2010,09,29,07,39,8.20
2010,09,29,07,40,8.20
2010,09,29,07,41,8.20
2010,09,29,07,42,8.20
2010,09,29,07,43,8.20
2010,09,29,07,44,8.20
2010,09,29,07,45,8.20
2010,09,29,07,46,8.20
2010,09,29,07,47,8.20
2010,09,29,07,48,8.20
2010,09,29,07,49,8.20
2010,09,29,07,50,8.20
2010,09,29,07,51,8.20
2010,09,29,07,52,8.30
2010,09,29,07,53,8.30
2010,09,29,07,54,8.30
2010,09,29,07,55,8.40
2010,09,29,07,56,8.50
2010,09,29,07,57,8.50
2010,09,29,07,58,8.50
2010,09,29,07,59,8.50
2010,09,29,08,00,8.60
2010,09,29,08,01,8.60
2010,09,29,08,02,8.60
2010,09,29,08,03,8.70
2010,09,29,08,04,8.70
2010,09,29,08,05,8.70
2010,09,29,08,06,8.70
2010,09,29,08,07,8.70
2010,09,29,08,08,8.70
2010,09,29,08,09,8.70
2010,09,29,08,10,8.70
2010,09,29,08,11,8.70
2010,09,29,08,12,8.70
2010,09,29,08,13,8.80
2010,09,29,08,14,8.80
2010,09,29,08,15,8.90
2010,09,29,08,16,8.90
2010,09,29,08,17,9.00
2010,09,29,08,18,9.10
2010,09,29,08,19,9.10
2010,09,29,08,20,9.20
2010,09,29,08,21,9.20
2010,09,29,08,22,9.20
2010,09,29,08,23,9.30
2010,09,29,08,24,9.40
2010,09,29,08,25,9.40
2010,09,29,08,26,9.50
2010,09,29,08,27,9.50
2010,09,29,08,28,9.60
2010,09,29,08,29,9.70
2010,09,29,08,30,9.70
2010,09,29,08,31,9.70
2010,09,29,08,32,9.70
2010,09,29,08,33,9.70
2010,09,29,08,34,9.70
2010,09,29,08,35,9.70
2010,09,29,08,36,9.70
2010,09,29,08,37,9.70
2010,09,29,08,38,9.70
2010,09,29,08,39,9.80
2010,09,29,08,40,9.80
2010,09,29,08,41,9.90
2010,09,29,08,42,9.90
2010,09,29,08,43,9.90
2010,09,29,08,44,9.90
2010,09,29,08,45,10.00
2010,09,29,08,46,10.10
2010,09,29,08,47,10.10
2010,09,29,08,48,10.10
2010,09,29,08,49,10.10
2010,09,29,08,50,10.10
2010,09,29,08,51,10.10
2010,09,29,08,52,10.20
2010,09,29,08,53,10.20
2010,09,29,08,54,10.30
2010,09,29,08,55,10.30
2010,09,29,08,56,10.40
2010,09,29,08,57,10.40
2010,09,29,08,58,10.50
2010,09,29,08,59,10.60
2010,09,29,09,00,10.60
2010,09,29,09,01,10.70
2010,09,29,09,02,10.80
2010,09,29,09,03,10.90
2010,09,29,09,04,11.10
2010,09,29,09,05,11.20
2010,09,29,09,06,11.40
2010,09,29,09,07,11.50
2010,09,29,09,08,11.60
2010,09,29,09,09,11.70
2010,09,29,09,10,11.70
2010,09,29,09,11,11.80
2010,09,29,09,12,11.80
2010,09,29,09,13,11.80
2010,09,29,09,14,11.80
2010,09,29,09,15,11.80
2010,09,29,09,16,11.80
2010,09,29,09,17,11.80
2010,09,29,09,18,11.80
2010,09,29,09,19,11.80
2010,09,29,09,20,11.80
2010,09,29,09,21,11.90
2010,09,29,09,22,12.00
2010,09,29,09,23,12.00
2010,09,29,09,24,12.00
2010,09,29,09,25,12.20
2010,09,29,09,26,12.30
2010,09,29,09,27,12.50
2010,09,29,09,28,12.60
2010,09,29,09,29,12.70
2010,09,29,09,30,12.70
2010,09,29,09,31,12.70
2010,09,29,09,32,12.70
2010,09,29,09,33,12.70
2010,09,29,09,34,12.80
2010,09,29,09,35,12.80
2010,09,29,09,36,12.90
2010,09,29,09,37,13.00
2010,09,29,09,38,13.00
2010,09,29,09,39,13.10
2010,09,29,09,40,13.10
2010,09,29,09,41,13.10
2010,09,29,09,42,13.20
2010,09,29,09,43,13.20
2010,09,29,09,44,13.10
2010,09,29,09,45,13.10
2010,09,29,09,46,13.10
2010,09,29,09,47,13.20
2010,09,29,09,48,13.30
2010,09,29,09,49,13.30
2010,09,29,09,50,13.30
2010,09,29,09,51,13.40
2010,09,29,09,52,13.40
2010,09,29,09,53,13.50
2010,09,29,09,54,13.50
2010,09,29,09,55,13.60
2010,09,29,09,56,13.70
2010,09,29,09,57,13.70
2010,09,29,09,58,13.70
2010,09,29,09,59,13.80
2010,09,29,10,00,13.80
2010,09,29,10,01,13.90
2010,09,29,10,02,13.90
2010,09,29,10,03,13.90
2010,09,29,10,04,13.90
2010,09,29,10,05,13.90
2010,09,29,10,06,13.80
2010,09,29,10,07,13.90
2010,09,29,10,08,13.90
2010,09,29,10,09,14.00
2010,09,29,10,10,14.10
2010,09,29,10,11,14.20
2010,09,29,10,12,14.20
2010,09,29,10,13,14.20
2010,09,29,10,14,14.20
2010,09,29,10,15,14.20
2010,09,29,10,16,14.30
2010,09,29,10,17,14.40
2010,09,29,10,18,14.40
2010,09,29,10,19,14.40
2010,09,29,10,20,14.40
2010,09,29,10,21,14.40
2010,09,29,10,22,14.40
2010,09,29,10,23,14.50
2010,09,29,10,24,14.50
2010,09,29,10,25,14.70
2010,09,29,10,26,14.70
2010,09,29,10,27,14.60
2010,09,29,10,28,14.70
2010,09,29,10,29,14.80
2010,09,29,10,30,14.80
2010,09,29,10,31,14.90
2010,09,29,10,32,15.00
2010,09,29,10,33,15.10
2010,09,29,10,34,15.10
2010,09,29,10,35,15.20
2010,09,29,10,36,15.30
2010,09,29,10,37,15.30
2010,09,29,10,38,15.30
2010,09,29,10,39,15.30
2010,09,29,10,40,15.40
2010,09,29,10,41,15.40
2010,09,29,10,42,15.50
2010,09,29,10,43,15.50
2010,09,29,10,44,15.50
2010,09,29,10,45,15.60
2010,09,29,10,46,15.60
2010,09,29,10,47,15.70
2010,09,29,10,48,15.70
2010,09,29,10,49,15.70
2010,09,29,10,50,15.80
2010,09,29,10,51,15.70
2010,09,29,10,52,15.60
2010,09,29,10,53,15.60
2010,09,29,10,54,15.50
2010,09,29,10,55,15.50
2010,09,29,10,56,15.50
2010,09,29,10,57,15.50
2010,09,29,10,58,15.60
2010,09,29,10,59,15.60
2010,09,29,11,00,15.60
2010,09,29,11,01,15.60
2010,09,29,11,02,15.60
2010,09,29,11,03,15.50
2010,09,29,11,04,15.60
2010,09,29,11,05,15.70
2010,09,29,11,06,15.80
2010,09,29,11,07,15.80
2010,09,29,11,08,15.80
2010,09,29,11,09,15.80
2010,09,29,11,10,15.80
2010,09,29,11,11,15.90
2010,09,29,11,12,15.90
2010,09,29,11,13,16.00
2010,09,29,11,14,16.10
2010,09,29,11,15,16.10
2010,09,29,11,16,16.10
2010,09,29,11,17,16.00
2010,09,29,11,18,15.90
2010,09,29,11,19,15.80
2010,09,29,11,20,15.80
2010,09,29,11,21,15.70
2010,09,29,11,22,15.60
2010,09,29,11,23,15.60
2010,09,29,11,24,15.60
2010,09,29,11,25,15.70
2010,09,29,11,26,15.70
2010,09,29,11,27,15.70
2010,09,29,11,28,15.60
2010,09,29,11,29,15.60
2010,09,29,11,30,15.60
2010,09,29,11,31,15.60
2010,09,29,11,32,15.70
2010,09,29,11,33,15.70
2010,09,29,11,34,15.70
2010,09,29,11,35,15.70
2010,09,29,11,36,15.70
2010,09,29,11,37,15.70
2010,09,29,11,38,15.80
2010,09,29,11,39,15.80
2010,09,29,11,40,15.90
2010,09,29,11,41,15.90
2010,09,29,11,42,16.00
2010,09,29,11,43,16.10
2010,09,29,11,44,16.10
2010,09,29,11,45,16.10
2010,09,29,11,46,16.10
2010,09,29,11,47,16.10
2010,09,29,11,48,16.10
2010,09,29,11,49,16.20
2010,09,29,11,50,16.20
2010,09,29,11,51,16.20
2010,09,29,11,52,16.20
2010,09,29,11,53,16.10
2010,09,29,11,54,16.10
2010,09,29,11,55,16.10
2010,09,29,11,56,16.10
2010,09,29,11,57,16.10
2010,09,29,11,58,16.10
2010,09,29,11,59,16.10
2010,09,29,12,00,16.10
2010,09,29,12,01,16.20
2010,09,29,12,02,16.20
2010,09,29,12,03,16.10
2010,09,29,12,04,16.20
2010,09,29,12,05,16.20
2010,09,29,12,06,16.30
2010,09,29,12,07,16.30
2010,09,29,12,08,16.30
2010,09,29,12,09,16.20
2010,09,29,12,10,16.20
2010,09,29,12,11,16.10
2010,09,29,12,12,16.10
2010,09,29,12,13,16.20
2010,09,29,12,14,16.30
2010,09,29,12,15,16.30
2010,09,29,12,16,16.40
2010,09,29,12,17,16.40
2010,09,29,12,18,16.40
2010,09,29,12,19,16.50
2010,09,29,12,20,16.60
2010,09,29,12,21,16.70
2010,09,29,12,22,16.70
2010,09,29,12,23,16.70
2010,09,29,12,24,16.80
2010,09,29,12,25,16.80
2010,09,29,12,26,16.80
2010,09,29,12,27,16.70
2010,09,29,12,28,16.70
2010,09,29,12,29,16.70
2010,09,29,12,30,16.70
2010,09,29,12,31,16.70
2010,09,29,12,32,16.80
2010,09,29,12,33,16.90
2010,09,29,12,34,17.00
2010,09,29,12,35,17.10
2010,09,29,12,36,17.20
2010,09,29,12,37,17.10
2010,09,29,12,38,16.90
2010,09,29,12,39,16.90
2010,09,29,12,40,16.90
2010,09,29,12,41,16.80
2010,09,29,12,42,16.80
2010,09,29,12,43,16.90
2010,09,29,12,44,16.90
2010,09,29,12,45,16.90
2010,09,29,12,46,16.90
2010,09,29,12,47,16.90
2010,09,29,12,48,16.80
2010,09,29,12,49,16.80
2010,09,29,12,50,16.80
2010,09,29,12,51,16.80
2010,09,29,12,52,16.80
2010,09,29,12,53,16.90
2010,09,29,12,54,16.90
2010,09,29,12,55,16.90
2010,09,29,12,56,16.80
2010,09,29,12,57,16.70
2010,09,29,12,58,16.70
2010,09,29,12,59,16.70
2010,09,29,13,00,16.70
2010,09,29,13,01,16.70
2010,09,29,13,02,16.80
2010,09,29,13,03,16.90
2010,09,29,13,04,16.80
2010,09,29,13,05,16.70
2010,09,29,13,06,16.60
2010,09,29,13,07,16.50
2010,09,29,13,08,16.40
2010,09,29,13,09,16.40
2010,09,29,13,10,16.30
2010,09,29,13,11,16.20
2010,09,29,13,12,16.10
2010,09,29,13,13,16.10
2010,09,29,13,14,16.20
2010,09,29,13,15,16.30
2010,09,29,13,16,16.30
2010,09,29,13,17,16.40
2010,09,29,13,18,16.40
2010,09,29,13,19,16.40
2010,09,29,13,20,16.40
2010,09,29,13,21,16.40
2010,09,29,13,22,16.40
2010,09,29,13,23,16.40
2010,09,29,13,24,16.30
2010,09,29,13,25,16.40
2010,09,29,13,26,16.40
2010,09,29,13,27,16.50
2010,09,29,13,28,16.60
2010,09,29,13,29,16.40
2010,09,29,13,30,16.50
2010,09,29,13,31,16.50
2010,09,29,13,32,16.50
2010,09,29,13,33,16.60
2010,09,29,13,34,16.60
2010,09,29,13,35,16.60
2010,09,29,13,36,16.50
2010,09,29,13,37,16.40
2010,09,29,13,38,16.40
2010,09,29,13,39,16.40
2010,09,29,13,40,16.40
2010,09,29,13,41,16.40
2010,09,29,13,42,16.40
2010,09,29,13,43,16.30
2010,09,29,13,44,16.20
2010,09,29,13,45,16.30
2010,09,29,13,46,16.30
2010,09,29,13,47,16.20
2010,09,29,13,48,16.20
2010,09,29,13,49,16.20
2010,09,29,13,50,16.20
2010,09,29,13,51,16.30
2010,09,29,13,52,16.30
2010,09,29,13,53,16.40
2010,09,29,13,54,16.40
2010,09,29,13,55,16.40
2010,09,29,13,56,16.40
2010,09,29,13,57,16.40
2010,09,29,13,58,16.40
2010,09,29,13,59,16.50
2010,09,29,14,00,16.60
2010,09,29,14,01,16.60
2010,09,29,14,02,16.60
2010,09,29,14,03,16.60
2010,09,29,14,04,16.60
2010,09,29,14,05,16.70
2010,09,29,14,06,16.80
2010,09,29,14,07,16.90
2010,09,29,14,08,16.90
2010,09,29,14,09,16.80
2010,09,29,14,10,16.80
2010,09,29,14,11,16.90
2010,09,29,14,12,16.90
2010,09,29,14,13,16.90
2010,09,29,14,14,16.90
2010,09,29,14,15,16.90
2010,09,29,14,16,16.90
2010,09,29,14,17,17.10
2010,09,29,14,18,17.20
2010,09,29,14,19,17.30
2010,09,29,14,20,17.30
2010,09,29,14,21,17.30
2010,09,29,14,22,17.40
2010,09,29,14,23,17.40
2010,09,29,14,24,17.40
2010,09,29,14,25,17.50
2010,09,29,14,26,17.50
2010,09,29,14,27,17.50
2010,09,29,14,28,17.60
2010,09,29,14,29,17.60
2010,09,29,14,30,17.60
2010,09,29,14,31,17.60
2010,09,29,14,32,17.70
2010,09,29,14,33,17.60
2010,09,29,14,34,17.60
2010,09,29,14,35,17.60
2010,09,29,14,36,17.50
2010,09,29,14,37,17.60
2010,09,29,14,38,17.50
2010,09,29,14,39,17.50
2010,09,29,14,40,17.60
2010,09,29,14,41,17.60
2010,09,29,14,42,17.60
2010,09,29,14,43,17.60
2010,09,29,14,44,17.60
2010,09,29,14,45,17.60
2010,09,29,14,46,17.60
2010,09,29,14,47,17.70
2010,09,29,14,48,17.70
2010,09,29,14,49,17.70
2010,09,29,14,50,17.70
2010,09,29,14,51,17.70
2010,09,29,14,52,17.70
2010,09,29,14,53,17.60
2010,09,29,14,54,17.50
2010,09,29,14,55,17.50
2010,09,29,14,56,17.40
2010,09,29,14,57,17.30
2010,09,29,14,58,17.30
2010,09,29,14,59,17.30
2010,09,29,15,00,17.40
2010,09,29,15,01,17.40
2010,09,29,15,02,17.40
2010,09,29,15,03,17.40
2010,09,29,15,04,17.40
2010,09,29,15,05,17.40
2010,09,29,15,06,17.40
2010,09,29,15,07,17.40
2010,09,29,15,08,17.50
2010,09,29,15,09,17.40
2010,09,29,15,10,17.40
2010,09,29,15,11,17.30
2010,09,29,15,12,17.10
2010,09,29,15,13,16.90
2010,09,29,15,14,17.00
2010,09,29,15,15,16.90
2010,09,29,15,16,16.90
2010,09,29,15,17,16.70
2010,09,29,15,18,16.60
2010,09,29,15,19,16.60
2010,09,29,15,20,16.60
2010,09,29,15,21,16.60
2010,09,29,15,22,16.50
2010,09,29,15,23,16.40
2010,09,29,15,24,16.40
2010,09,29,15,25,16.30
2010,09,29,15,26,16.20
2010,09,29,15,27,16.20
2010,09,29,15,28,16.20
2010,09,29,15,29,16.20
2010,09,29,15,30,16.10
2010,09,29,15,31,16.20
2010,09,29,15,32,16.30
2010,09,29,15,33,16.30
2010,09,29,15,34,16.30
2010,09,29,15,35,16.20
2010,09,29,15,36,16.10
2010,09,29,15,37,16.10
2010,09,29,15,38,15.90
2010,09,29,15,39,15.90
2010,09,29,15,40,15.90
2010,09,29,15,41,15.90
2010,09,29,15,42,15.90
2010,09,29,15,43,15.90
2010,09,29,15,44,15.90
2010,09,29,15,45,15.90
2010,09,29,15,46,16.00
2010,09,29,15,47,16.10
2010,09,29,15,48,16.10
2010,09,29,15,49,16.20
2010,09,29,15,50,16.20
2010,09,29,15,51,16.20
2010,09,29,15,52,16.20
2010,09,29,15,53,16.20
2010,09,29,15,54,16.30
2010,09,29,15,55,16.30
2010,09,29,15,56,16.30
2010,09,29,15,57,16.30
2010,09,29,15,58,16.30
2010,09,29,15,59,16.40
2010,09,29,16,00,16.40
2010,09,29,16,01,16.40
2010,09,29,16,02,16.40
2010,09,29,16,03,16.40
2010,09,29,16,04,16.40
2010,09,29,16,05,16.40
2010,09,29,16,06,16.40
2010,09,29,16,07,16.40
2010,09,29,16,08,16.40
2010,09,29,16,09,16.60
2010,09,29,16,10,16.60
2010,09,29,16,11,16.60
2010,09,29,16,12,16.60
2010,09,29,16,13,16.50
2010,09,29,16,14,16.40
2010,09,29,16,15,16.40
2010,09,29,16,16,16.40
2010,09,29,16,17,16.40
2010,09,29,16,18,16.40
2010,09,29,16,19,16.50
2010,09,29,16,20,16.60
2010,09,29,16,21,16.60
2010,09,29,16,22,16.70
2010,09,29,16,23,16.60
2010,09,29,16,24,16.60
2010,09,29,16,25,16.60
2010,09,29,16,26,16.60
2010,09,29,16,27,16.70
2010,09,29,16,28,16.70
2010,09,29,16,29,16.80
2010,09,29,16,30,16.80
2010,09,29,16,31,16.90
2010,09,29,16,32,16.90
2010,09,29,16,33,17.00
2010,09,29,16,34,17.00
2010,09,29,16,35,17.00
2010,09,29,16,36,17.00
2010,09,29,16,37,17.10
2010,09,29,16,38,17.10
2010,09,29,16,39,17.20
2010,09,29,16,40,17.20
2010,09,29,16,41,17.30
2010,09,29,16,42,17.30
2010,09,29,16,43,17.30
2010,09,29,16,44,17.30
2010,09,29,16,45,17.30
2010,09,29,16,46,17.40
2010,09,29,16,47,17.50
2010,09,29,16,48,17.60
2010,09,29,16,49,17.70
2010,09,29,16,50,17.70
2010,09,29,16,51,17.80
2010,09,29,16,52,17.90
2010,09,29,16,53,17.90
2010,09,29,16,54,17.80
2010,09,29,16,55,17.80
2010,09,29,16,56,17.70
2010,09,29,16,57,17.60
2010,09,29,16,58,17.50
2010,09,29,16,59,17.40
2010,09,29,17,00,17.30
2010,09,29,17,01,17.10
2010,09,29,17,02,17.00
2010,09,29,17,03,17.00
2010,09,29,17,04,17.00
2010,09,29,17,05,16.90
2010,09,29,17,06,16.80
2010,09,29,17,07,16.80
2010,09,29,17,08,16.80
2010,09,29,17,09,16.70
2010,09,29,17,10,16.70
2010,09,29,17,11,16.60
2010,09,29,17,12,16.60
2010,09,29,17,13,16.60
2010,09,29,17,14,16.60
2010,09,29,17,15,16.50
2010,09,29,17,16,16.40
2010,09,29,17,17,16.40
2010,09,29,17,18,16.40
2010,09,29,17,19,16.40
2010,09,29,17,20,16.40
2010,09,29,17,21,16.40
2010,09,29,17,22,16.40
2010,09,29,17,23,16.40
2010,09,29,17,24,16.30
2010,09,29,17,25,16.30
2010,09,29,17,26,16.20
2010,09,29,17,27,16.20
2010,09,29,17,28,16.10
2010,09,29,17,29,16.10
2010,09,29,17,30,16.10
2010,09,29,17,31,16.00